Retour au catalogue

ATLAS 5 CENTAUR DEB

LostHEO
NORAD 51478·DEBRIS·🇺🇸 United States

Lancé Sep 17, 2014 depuis Cape Canaveral Space Force Station

Loading…

Prochains Passages (prochaines 24 heures)

TLE

PériméSource: Space-Track

Époque: Dec 26, 2024, 23:32 UTC

1 51478U 14055DJ  24361.98059147 -.00000038  00000-0  00000-0 0  9991
2 51478  20.0114 255.3624 4406966 321.7001  14.1744  1.66607510 15437

Suivez ATLAS 5 CENTAUR DEB en temps réel avec AllMySat

Download on the App Store